Powrót do katalogu

STARLINK-32639

AktywnyŁącznośćVLEO
NORAD 62153·PAYLOAD·🇺🇸 United States

Wystrzelony Nov 30, 2024 z Cape Canaveral Space Force Station

Loading…

Następne Przeloty (najbliższe 24 godziny)

TLE

ŚwieżeSource: CelesTrak SupGP

Epoka: Sep 14, 2026, 21:40 UTC

1 62153C 24224Q   26257.90326389 -.00052769  00000+0 -19110-2 0  2574
2 62153  43.0019 169.7271 0001351 269.3640 156.0461 15.27609829    12

Śledź STARLINK-32639 w czasie rzeczywistym z AllMySat

Download on the App Store